Hourly Weather Ceber

Today, 12 June, Saturday

Time Temperature Precipitation Wind Pressure Humidity
00:00 +13°C° 0 mm 2 mps 734 mmHg 90%
01:00 +13°C° 0 mm 2 mps 734 mmHg 90%
02:00 +13°C° 0 mm 2 mps 733 mmHg 90%
03:00 +13°C° 0 mm 2 mps 733 mmHg 90%
04:00 +12°C° 0 mm 2 mps 733 mmHg 89%
05:00 +15°C° 0 mm 2 mps 733 mmHg 82%
06:00 +17°C° 0 mm 2 mps 734 mmHg 75%
07:00 +18°C° 0 mm 2 mps 734 mmHg 69%
08:00 +20°C° 0.1 mm 3 mps 733 mmHg 66%
09:00 +21°C° 0.1 mm 3 mps 733 mmHg 64%
10:00 +22°C° 0.1 mm 3 mps 733 mmHg 61%
11:00 +22°C° 0.4 mm 3 mps 733 mmHg 61%
12:00 +22°C° 0.4 mm 4 mps 732 mmHg 62%
13:00 +22°C° 0.4 mm 4 mps 732 mmHg 63%
14:00 +22°C° 0.4 mm 5 mps 731 mmHg 65%
15:00 +22°C° 0.4 mm 5 mps 731 mmHg 67%
16:00 +22°C° 0.4 mm 5 mps 730 mmHg 69%
17:00 +20°C° 1 mm 4 mps 730 mmHg 78%
18:00 +18°C° 1 mm 3 mps 730 mmHg 86%
19:00 +16°C° 1 mm 2 mps 730 mmHg 94%
20:00 +16°C° 2.6 mm 3 mps 730 mmHg 95%
21:00 +14°C° 2.6 mm 3 mps 730 mmHg 95%
22:00 +14°C° 2.6 mm 4 mps 730 mmHg 95%
23:00 +13°C° 0.5 mm 4 mps 730 mmHg 94%

Tomorrow, 13 June, Sunday

Time Temperature Precipitation Wind Pressure Humidity
00:00 +13°C° 0.5 mm 5 mps 731 mmHg 93%
01:00 +11°C° 0.5 mm 6 mps 731 mmHg 92%
02:00 +10°C° 0 mm 5 mps 732 mmHg 92%
03:00 +9°C° 0 mm 5 mps 732 mmHg 92%
04:00 +9°C° 0 mm 5 mps 732 mmHg 92%
05:00 +9°C° 0 mm 6 mps 732 mmHg 88%
06:00 +10°C° 0 mm 7 mps 733 mmHg 83%
07:00 +11°C° 0 mm 7 mps 733 mmHg 79%
08:00 +11°C° 0.1 mm 7 mps 734 mmHg 78%
09:00 +11°C° 0.1 mm 7 mps 734 mmHg 77%
10:00 +11°C° 0.1 mm 7 mps 735 mmHg 76%
11:00 +11°C° 0 mm 7 mps 735 mmHg 74%
12:00 +11°C° 0 mm 8 mps 735 mmHg 72%
13:00 +12°C° 0 mm 8 mps 735 mmHg 70%
14:00 +12°C° 0 mm 8 mps 736 mmHg 70%
15:00 +12°C° 0 mm 7 mps 736 mmHg 69%
16:00 +12°C° 0 mm 7 mps 736 mmHg 69%
17:00 +12°C° 0 mm 7 mps 736 mmHg 71%
18:00 +11°C° 0 mm 7 mps 736 mmHg 73%
19:00 +11°C° 0 mm 6 mps 736 mmHg 75%
20:00 +11°C° 0 mm 6 mps 737 mmHg 75%
21:00 +10°C° 0 mm 6 mps 737 mmHg 76%
22:00 +10°C° 0 mm 6 mps 737 mmHg 76%
23:00 +9°C° 0 mm 5 mps 737 mmHg 81%

Day after tomorrow, 14 June, Monday

Time Temperature Precipitation Wind Pressure Humidity
00:00 +9°C° 0 mm 5 mps 737 mmHg 85%
01:00 +8°C° 0 mm 4 mps 737 mmHg 90%
02:00 +7°C° 0 mm 4 mps 738 mmHg 92%
03:00 +8°C° 0 mm 3 mps 738 mmHg 94%
04:00 +7°C° 0 mm 3 mps 738 mmHg 95%
05:00 +9°C° 0 mm 3 mps 738 mmHg 87%
06:00 +11°C° 0 mm 4 mps 738 mmHg 79%
07:00 +13°C° 0 mm 4 mps 739 mmHg 71%
08:00 +14°C° 0.1 mm 4 mps 739 mmHg 68%
09:00 +15°C° 0.1 mm 4 mps 739 mmHg 65%
10:00 +15°C° 0.1 mm 4 mps 739 mmHg 63%
11:00 +17°C° 0.2 mm 4 mps 738 mmHg 60%
12:00 +18°C° 0.2 mm 4 mps 738 mmHg 57%
13:00 +19°C° 0.2 mm 4 mps 738 mmHg 54%
14:00 +19°C° 0 mm 4 mps 738 mmHg 54%
15:00 +19°C° 0 mm 4 mps 738 mmHg 53%
16:00 +19°C° 0 mm 4 mps 737 mmHg 52%
17:00 +18°C° 0 mm 3 mps 737 mmHg 59%
18:00 +17°C° 0 mm 3 mps 737 mmHg 66%
19:00 +15°C° 0 mm 2 mps 737 mmHg 73%
20:00 +14°C° 0 mm 2 mps 737 mmHg 76%
21:00 +13°C° 0 mm 1 mps 737 mmHg 79%
22:00 +12°C° 0 mm 1 mps 737 mmHg 82%
23:00 +11°C° 0 mm 1 mps 738 mmHg 83%

15 June, Tuesday

Time Temperature Precipitation Wind Pressure Humidity
00:00 +11°C° 0 mm 1 mps 738 mmHg 83%
01:00 +11°C° 0 mm 1 mps 738 mmHg 84%
02:00 +10°C° 0 mm 1 mps 738 mmHg 84%
03:00 +10°C° 0 mm 1 mps 738 mmHg 84%
04:00 +10°C° 0 mm 1 mps 738 mmHg 84%
05:00 +12°C° 0 mm 1 mps 738 mmHg 77%
06:00 +14°C° 0 mm 1 mps 738 mmHg 71%
07:00 +18°C° 0 mm 1 mps 738 mmHg 65%
08:00 +19°C° 0 mm 1 mps 738 mmHg 61%
09:00 +20°C° 0 mm 1 mps 738 mmHg 56%
10:00 +21°C° 0 mm 1 mps 738 mmHg 52%
11:00 +22°C° 0 mm 1 mps 738 mmHg 50%
12:00 +22°C° 0 mm 1 mps 738 mmHg 48%
13:00 +23°C° 0 mm 1 mps 738 mmHg 46%
14:00 +23°C° 0 mm 1 mps 738 mmHg 48%
15:00 +23°C° 0 mm 1 mps 737 mmHg 49%
16:00 +23°C° 0 mm 1 mps 737 mmHg 50%
17:00 +22°C° 0 mm 1 mps 737 mmHg 57%
18:00 +20°C° 0 mm 1 mps 737 mmHg 64%
19:00 +19°C° 0 mm 1 mps 737 mmHg 70%
20:00 +18°C° 0 mm 1 mps 737 mmHg 71%
21:00 +16°C° 0 mm 1 mps 737 mmHg 71%
22:00 +16°C° 0 mm 1 mps 737 mmHg 72%
23:00 +16°C° 0 mm 1 mps 737 mmHg 71%

16 June, Wednesday

Time Temperature Precipitation Wind Pressure Humidity
00:00 +16°C° 0 mm 1 mps 737 mmHg 71%
01:00 +16°C° 0 mm 1 mps 737 mmHg 70%
02:00 +16°C° 0 mm 1 mps 737 mmHg 71%
03:00 +16°C° 0 mm 1 mps 737 mmHg 72%
04:00 +15°C° 0 mm 1 mps 737 mmHg 72%
05:00 +16°C° 0 mm 1 mps 737 mmHg 71%
06:00 +18°C° 0 mm 1 mps 737 mmHg 70%
07:00 +20°C° 0 mm 1 mps 737 mmHg 69%
08:00 +20°C° 0 mm 1 mps 738 mmHg 68%
09:00 +21°C° 0 mm 1 mps 738 mmHg 67%
10:00 +22°C° 0 mm 1 mps 738 mmHg 66%
11:00 +23°C° 0.1 mm 1 mps 738 mmHg 64%
12:00 +24°C° 0.1 mm 1 mps 738 mmHg 61%
13:00 +25°C° 0.1 mm 1 mps 738 mmHg 59%
14:00 +25°C° 0.2 mm 1 mps 738 mmHg 60%
15:00 +25°C° 0.2 mm 1 mps 737 mmHg 61%
16:00 +25°C° 0.2 mm 1 mps 737 mmHg 62%
17:00 +23°C° 0.2 mm 2 mps 737 mmHg 69%
18:00 +21°C° 0.2 mm 2 mps 737 mmHg 76%
19:00 +20°C° 0.2 mm 3 mps 737 mmHg 83%
20:00 +19°C° 0 mm 2 mps 738 mmHg 87%
21:00 +18°C° 0 mm 2 mps 738 mmHg 91%
22:00 +16°C° 0 mm 2 mps 738 mmHg 95%
23:00 +16°C° 0 mm 2 mps 738 mmHg 95%

17 June, Thursday

Time Temperature Precipitation Wind Pressure Humidity
00:00 +16°C° 0 mm 2 mps 738 mmHg 95%
01:00 +15°C° 0 mm 2 mps 738 mmHg 96%
02:00 +15°C° 0 mm 2 mps 738 mmHg 96%
03:00 +15°C° 0 mm 2 mps 738 mmHg 96%
04:00 +15°C° 0 mm 2 mps 738 mmHg 97%
05:00 +16°C° 0 mm 2 mps 738 mmHg 92%
06:00 +18°C° 0 mm 3 mps 738 mmHg 88%
07:00 +20°C° 0 mm 3 mps 739 mmHg 83%
08:00 +21°C° 0 mm 3 mps 739 mmHg 76%
09:00 +24°C° 0 mm 3 mps 739 mmHg 70%
10:00 +25°C° 0 mm 3 mps 739 mmHg 63%
11:00 +26°C° 0 mm 3 mps 739 mmHg 59%
12:00 +27°C° 0 mm 3 mps 739 mmHg 55%
13:00 +27°C° 0 mm 3 mps 739 mmHg 51%
14:00 +27°C° 0 mm 3 mps 738 mmHg 51%
15:00 +28°C° 0 mm 3 mps 738 mmHg 52%
16:00 +28°C° 0 mm 3 mps 738 mmHg 53%
17:00 +26°C° 0 mm 3 mps 738 mmHg 62%
18:00 +24°C° 0 mm 3 mps 738 mmHg 71%
19:00 +22°C° 0 mm 3 mps 738 mmHg 79%
20:00 +20°C° 0 mm 3 mps 738 mmHg 84%
21:00 +19°C° 0 mm 3 mps 738 mmHg 89%
22:00 +18°C° 0 mm 3 mps 738 mmHg 93%
23:00 +17°C° 0 mm 3 mps 738 mmHg 94%
Show more

We Need Your Consent

Meteoprog and our Service Providers may store and access personal data such as cookies, device identifiers or other similar technologies on your device and process such data to personalise content and ads, as well as provide social media features and to analyse the traffic.

  • Store and/or access information on your device

    Cookies, device identifiers or other information can be stored or accessed on your device for the purposes indicated above.

  • Personalised ads and content, ad and content measurement, audience insights, and products development

    Ads and content can be personalised based on a profile. More data can be added to better personalise ads and content. Ad and content performance can be measured. Insights about the audience who saw the ads and content can be derived. Such data can be used to develop or improve user’s experience, systems and software.

By clicking ‘I Agree’ you will allow the use of indicated cookies, device identifiers, web beacons or other similar technologies. Your settings can be changed in the browser on your device.

For certain purposes, legitimate interests may be relied on, rather than consent. You can read more about this in our Privacy and Cookie Policy.